Погода в Межводном

Россия / Республика Крым     45°35′07″N   32°50′24″E
темп.,
°C
ветер,
м/с
пор.,
м/с
влажн.,
%
обл.,
%
осадки,
мм/ч
давл.,
гПа
погр.,
м
25 июня, сб
сб2500:00+18с1279100 1.8 1008140
03:00+18ссв45755 4.1 1008294
06:00+17св577661 1.3 1008349
09:00+20св88655 2.0 10091034
12:00+21ссв896422 0.8 10101135
15:00+21ссв576660 1.4 1010568
18:00+22ссв5860100 0.4 1011934
21:00+20св4668100 0.6 1011111
26 июня, вс
вс2600:00+19всв4678100 0.0 1012218
03:00+20ссв578392 0.1 1012237
06:00+20св697923 0.4 1013278
09:00+21ссв686927 0.4 1014581
12:00+22ссв7866100 0.1 1014904
15:00+24с6758100 0.1 1014779
18:00+23ссз6868100 0.0 1014215
21:00+22ссз4671100 0.0 101497
27 июня, пн
пн2700:00+21всв4676100 0.1 1014140
03:00+20ссв4786100 0.1 1014283
06:00+21ссв71085100 0.0 1013464
09:00+21св81376100 0.0 1014649
12:00+21св7127895 0.0 1014752
15:00+21всв101585100 0.5 1014787
18:00+20всв91584100 0.6 1015844
21:00+19св81387100 0.9 1015622
28 июня, вт
вт2800:00+20св61193100 0.3 1015589
03:00+20св8128999 0.5 1015543
06:00+20св81280100 0.0 1015511
09:00+22св8117589 0.0 1015571
12:00+24св7961100 0.0 1015708
15:00+25св6852100 0.0 1014708
18:00+23юв5765100 0.0 1015279
21:00+21ссв116860 0.0 101515
29 июня, ср
ср2900:00+20с337613 0.0 101535
03:00+20ссв46765 0.0 101589
06:00+21св58735 0.0 1015154
09:00+23ссв45635 0.0 1015275
12:00+24ссв676644 0.1 1015704
15:00+27св810565 0.3 10141166
18:00+26ссв675720 0.0 1014777
21:00+23ссв6108129 0.0 1014140